Weather History for KGXY - December, 2011

Change the Weather History Date:

Tuesday, December 13, 2011

  Actual Average Record
Temperature  
Mean Temperature 21 °F -  
Max Temperature 28 °F 40 °F 62 °F (2010)
Min Temperature 10 °F 13 °F -11 °F (1985)
Degree Days  
Heating Degree Days 44    
Moisture  
Dew Point 16 °F    
Average Humidity 85    
Maximum Humidity 93    
Minimum Humidity 79    
Precipitation  
Precipitation 0.00 in - - ()
Sea Level Pressure  
Sea Level Pressure 29.94 in    
Wind  
Wind Speed 2 mph (West)    
Max Wind Speed 7 mph    
Max Gust Speed -    
Visibility 5 miles    
Events      
Averages and records for this station are not official NWS values.
T = Trace of Precipitation, MM = Missing Value Source: NWS Daily Summary

Daily Weather History Graph

Daily Weather History Graph

Search for Another Location

Airport or City:

Trip Planner

Search our weather history database for the weather conditions in past years. The results will help you decide how hot, cold, wet, or windy it might be!

Date:

Astronomy

Dec. 13, 2011 Rise Set
Actual Time 7:12 AM MST 4:32 PM MST
Civil Twilight 6:42 AM MST 5:03 PM MST
Nautical Twilight 6:08 AM MST 5:37 PM MST
Astronomical Twilight 5:34 AM MST 6:10 PM MST
Moon 7:50 PM MST (12/13) 9:24 AM MST (12/13)
Length of Visible Light 10h 20m
Length of Day
9h 19m
Waning Gibbous, 90% of the Moon is Illuminated
Dec 13
Waning Gibbous
Dec 17
Last Quarter
Dec 24
New
Dec 31
First Quarter
Jan 9
Full

Hourly Weather History & Observations

Time (MST) Temp. Windchill Dew Point Humidity Pressure Visibility Wind Dir Wind Speed Gust Speed Precip Events Conditions
12:15 AM 17.6 °F 12.3 °F 12.2 °F 79% 30.02 in 10.0 mi SSW 3.5 mph - N/A   Clear
12:35 AM 15.8 °F - 12.2 °F 86% 30.02 in 9.0 mi Calm Calm - N/A   Clear
12:55 AM 17.6 °F - 12.2 °F 79% 30.00 in 9.0 mi Calm Calm - N/A   Clear
1:15 AM 15.8 °F - 12.2 °F 86% 30.00 in 9.0 mi Calm Calm - N/A   Clear
1:35 AM 15.8 °F 8.6 °F 12.2 °F 86% 30.00 in 8.0 mi ENE 4.6 mph - N/A   Clear
1:55 AM 15.8 °F - 10.4 °F 79% 30.00 in 7.0 mi Calm Calm - N/A   Clear
2:55 AM 15.8 °F - 10.4 °F 79% 30.00 in 8.0 mi Calm Calm - N/A   Clear
3:35 AM 14.0 °F - 8.6 °F 79% 29.99 in 5.0 mi Calm Calm - N/A   Clear
4:35 AM 14.0 °F 6.5 °F 10.4 °F 86% 29.99 in 10.0 mi NW 4.6 mph - N/A   Scattered Clouds
4:55 AM 14.0 °F 8.2 °F 8.6 °F 79% 29.98 in 10.0 mi NNW 3.5 mph - N/A   Mostly Cloudy
5:35 AM 15.8 °F 10.2 °F 10.4 °F 79% 29.98 in 10.0 mi NNW 3.5 mph - N/A   Overcast
5:55 AM 14.0 °F 6.5 °F 8.6 °F 79% 29.98 in 10.0 mi NNW 4.6 mph - N/A   Overcast
6:55 AM 17.6 °F - 14.0 °F 86% 30.00 in 0.5 mi Calm Calm - N/A   Overcast
7:15 AM 19.4 °F - 15.8 °F 86% 30.01 in 0.2 mi Calm Calm - N/A   Overcast
7:55 AM 19.4 °F - 17.6 °F 93% 30.00 in 0.2 mi Calm Calm - N/A   Overcast
9:15 AM - - - N/A% - - North - - N/A   Unknown
9:35 AM 21.2 °F 14.9 °F 19.4 °F 93% 30.01 in 0.2 mi NNE 4.6 mph - N/A   Unknown
9:55 AM 21.2 °F - 19.4 °F 93% 30.01 in 0.5 mi Calm Calm - N/A   Overcast
10:15 AM 21.2 °F - 19.4 °F 93% 30.00 in 0.5 mi Calm Calm - N/A   Overcast
10:35 AM 21.2 °F 16.4 °F 19.4 °F 93% 29.99 in 1.2 mi North 3.5 mph - N/A   Overcast
10:55 AM 23.0 °F - 19.4 °F 86% 29.99 in 2.0 mi Calm Calm - N/A   Overcast
11:15 AM 23.0 °F - 19.4 °F 86% 29.97 in 2.0 mi Calm Calm - N/A   Overcast
11:35 AM 24.8 °F 20.5 °F 21.2 °F 86% 29.97 in 2.5 mi WSW 3.5 mph - N/A   Overcast
11:55 AM 23.0 °F - 19.4 °F 86% 29.96 in 5.0 mi Calm Calm - N/A   Overcast
12:15 PM 24.8 °F - 21.2 °F 86% 29.94 in 4.0 mi Calm Calm - N/A   Overcast
12:35 PM 24.8 °F - 23.0 °F 93% 29.94 in 3.0 mi Calm Calm - N/A   Overcast
12:55 PM 24.8 °F 20.5 °F 21.2 °F 86% 29.93 in 3.0 mi ESE 3.5 mph - N/A   Overcast
1:15 PM 24.8 °F 19.1 °F 23.0 °F 93% 29.93 in 4.0 mi East 4.6 mph - N/A   Mostly Cloudy
1:35 PM 28.4 °F 23.3 °F 24.8 °F 86% 29.92 in 5.0 mi SE 4.6 mph - N/A   Scattered Clouds
1:55 PM 28.4 °F 23.3 °F 23.0 °F 80% 29.91 in 6.0 mi SE 4.6 mph - N/A   Partly Cloudy
2:15 PM 26.6 °F - 21.2 °F 80% 29.90 in 6.0 mi Calm Calm - N/A   Clear
2:35 PM 26.6 °F - 21.2 °F 80% 29.91 in 7.0 mi Calm Calm - N/A   Clear
3:55 PM 28.4 °F 24.6 °F 23.0 °F 80% 29.90 in 7.0 mi SSE 3.5 mph - N/A   Clear
4:35 PM 24.8 °F 16.9 °F 19.4 °F 80% 29.90 in 3.0 mi South 6.9 mph - N/A   Clear
4:55 PM 21.2 °F 12.6 °F 17.6 °F 86% 29.91 in 1.2 mi SSE 6.9 mph - N/A   Scattered Clouds
5:15 PM 19.4 °F 11.5 °F 17.6 °F 93% 29.89 in 0.2 mi South 5.8 mph - N/A   Overcast
5:36 PM 19.4 °F 12.8 °F 17.6 °F 93% 29.90 in 0.2 mi West 4.6 mph - N/A   Overcast
6:35 PM 19.4 °F 14.3 °F 15.8 °F 86% 29.90 in 2.5 mi West 3.5 mph - N/A   Clear
6:55 PM 19.4 °F 14.3 °F 17.6 °F 93% 29.90 in 3.0 mi West 3.5 mph - N/A   Clear
7:15 PM 19.4 °F 12.8 °F 15.8 °F 86% 29.90 in 2.5 mi WNW 4.6 mph - N/A   Clear
7:55 PM 19.4 °F - 14.0 °F 80% 29.90 in 4.0 mi Calm Calm - N/A   Clear
8:55 PM 17.6 °F - 14.0 °F 86% 29.87 in 4.0 mi Calm Calm - N/A   Clear
9:15 PM 17.6 °F - 12.2 °F 79% 29.87 in 4.0 mi Calm Calm - N/A   Clear
9:35 PM 15.8 °F 8.6 °F 12.2 °F 86% 29.86 in 5.0 mi NW 4.6 mph - N/A   Clear
9:36 PM 15.8 °F 10.2 °F 12.2 °F 86% 29.86 in 5.0 mi NW 3.5 mph - N/A   Clear
9:56 PM 17.6 °F 12.3 °F 12.2 °F 79% 29.86 in 5.0 mi WNW 3.5 mph - N/A   Clear
10:15 PM 15.8 °F 10.2 °F 12.2 °F 86% 29.86 in 5.0 mi SSW 3.5 mph - N/A   Clear
10:35 PM 15.8 °F - 12.2 °F 86% 29.86 in 5.0 mi Calm Calm - N/A   Clear
10:55 PM 15.8 °F - 10.4 °F 79% 29.86 in 5.0 mi Calm Calm - N/A   Clear
11:35 PM 15.8 °F - 10.4 °F 79% 29.86 in 5.0 mi Calm Calm - N/A   Clear
11:56 PM 10.4 °F - 6.8 °F 85% 29.84 in 5.0 mi Calm Calm - N/A   Clear